QPF
0.00 0.00 0.00 0.00 0.00 0.00 0.00 0.00 0.00 0.00 0.00 0.00 0.00 0.00 0.00 0.00 0.00 0.00 0.00 0.00 0.00 0.00 0.00 0.00 0.00 0.00 0.00 0.00 0.00 0.00 0.00 0.00 0.00 0.00 0.00 0.00 0.00 0.00 0.00 0.00 0.00 0.00
0.00 0.00 0.00 0.00 0.00 0.00 0.00 0.00 0.00 0.00 0.00 0.00 0.00 0.00 0.00 0.00 0.00 0.00 0.00 0.00 0.00 0.00 0.00 0.00 0.00 0.00 0.00 0.00 0.00 0.00 0.00 0.00 0.00 0.00 0.00 0.00 0.00 0.00 0.00 0.00 0.00 0.00
0.00 0.00 0.00 0.00 0.00 0.00 0.00 0.00 0.00 0.00 0.00 0.00 0.00 0.00 0.00 0.00 0.00 0.00 0.00 0.00 0.00 0.00 0.00 0.00 0.00 0.00 0.00 0.00 0.00 0.00 0.00 0.00 0.00 0.00 0.00 0.00 0.00 0.00 0.00 0.00 0.00 0.00
0.00 0.00 0.00 0.00 0.00 0.00 0.00 0.00 0.00 0.00 0.00 0.00 0.00 0.00 0.00 0.00 0.00 0.00 0.00 0.00 0.00 0.00 0.00 0.00 0.00 0.00 0.00 0.00 0.00 0.00 0.00 0.00 0.00 0.00 0.00 0.00 0.00 0.00 0.00 0.00 0.00 0.00
0.00 0.00 0.00 0.00 0.00 0.00 0.00 0.00 0.00 0.00 0.00 0.00 0.00 0.00 0.00 0.00 0.00 0.00 0.00 0.00 0.00 0.00 0.00 0.00 0.00 0.00 0.00 0.00 0.00 0.00 0.00 0.00 0.00 0.00 0.00 0.00 0.00 0.00 0.00 0.00 0.00 0.00
0.00 0.00 0.00 0.00 0.00 0.00 0.00 0.00 0.00 0.00 0.00 0.00 0.00 0.00 0.00 0.00 0.00 0.00 0.00 0.00 0.00 0.00 0.00 0.00 0.00 0.00 0.00 0.00 0.00 0.00 0.00 0.00 0.00 0.00 0.00 0.00 0.00 0.00 0.00 0.00 0.00 0.00
0.00 0.00 0.00 0.00 0.00 0.00 0.00 0.00 0.00 0.00 0.00 0.00 0.00 0.00 0.00 0.00 0.00 0.00 0.00 0.00 0.00 0.00 0.00 0.00 0.00 0.00 0.00 0.00 0.00 0.00 0.00 0.00 0.00 0.00 0.00 0.00 0.00 0.00 0.00 0.00 0.00 0.00
0.00 0.00 0.00 0.00 0.00 0.00 0.00 0.00 0.00 0.00 0.00 0.00 0.00 0.00 0.00 0.00 0.00 0.00 0.02 0.00 0.00 0.00 0.00 0.00 0.00 0.00 0.00 0.00 0.00 0.00 0.00 0.00 0.00 0.00 0.00 0.00 0.00 0.00 0.00 0.00 0.00 0.00
0.00 0.00 0.00 0.00 0.00 0.00 0.00 0.00 0.00 0.00 0.00 0.00 0.00 0.00 0.00 0.01 0.00 0.00 0.00 0.00 0.00 0.00 0.00 0.00 0.00 0.00 0.00 0.00 0.00 0.00 0.00 0.00 0.00 0.00 0.00 0.00 0.00 0.00 0.00 0.00 0.00 0.00
0.00 0.00 0.00 0.00 0.00 0.00 0.00 0.00 0.00 0.00 0.02 0.02 0.03 0.04 0.03 0.02 0.00 0.00 0.00 0.00 0.00 0.00 0.02 0.00 0.00 0.00 0.00 0.00 0.00 0.00 0.00 0.00 0.00 0.00 0.00 0.00 0.00 0.00 0.00 0.00 0.00 0.00
0.00 0.00 0.00 0.00 0.00 0.00 0.00 0.00 0.00 0.00 0.00 0.03 0.04 0.08 0.03 0.01 0.00 0.02 0.00 0.00 0.01 0.01 0.00 0.00 0.00 0.00 0.00 0.00 0.00 0.00 0.00 0.00 0.00 0.00 0.00 0.00 0.00 0.00 0.00 0.00 0.00 0.00
0.00 0.00 0.00 0.00 0.00 0.00 0.00 0.01 0.00 0.00 0.01 0.00 0.02 0.01 0.01 0.01 0.02 0.01 0.01 0.02 0.02 0.01 0.00 0.00 0.00 0.00 0.00 0.00 0.00 0.00 0.00 0.00 0.00 0.00 0.00 0.00 0.00 0.00 0.00 0.00 0.00 0.00
0.00 0.00 0.00 0.00 0.00 0.00 0.00 0.00 0.00 0.00 0.00 0.00 0.01 0.01 0.02 0.02 0.02 0.02 0.02 0.02 0.01 0.00 0.00 0.00 0.00 0.00 0.00 0.00 0.00 0.00 0.00 0.00 0.00 0.00 0.00 0.00 0.00 0.00 0.00 0.00 0.00 0.00
0.00 0.00 0.00 0.00 0.00 0.02 0.00 0.00 0.00 0.01 0.00 0.02 0.02 0.02 0.03 0.01 0.01 0.01 0.02 0.00 0.00 0.00 0.00 0.00 0.00 0.00 0.00 0.00 0.00 0.00 0.00 0.00 0.00 0.00 0.00 0.00 0.00 0.00 0.00 0.00 0.00 0.00
0.00 0.00 0.00 0.00 0.07 0.14 0.04 0.01 0.01 0.02 0.01 0.02 0.03 0.03 0.03 0.04 0.03 0.01 0.00 0.00 0.00 0.00 0.00 0.00 0.00 0.00 0.00 0.00 0.00 0.00 0.00 0.00 0.00 0.00 0.00 0.00 0.00 0.00 0.00 0.00 0.00 0.00
0.00 0.00 0.00 0.01 0.10 0.56 0.46 0.11 0.12 0.01 0.03 0.09 0.08 0.09 0.06 0.05 0.03 0.01 0.00 0.00 0.00 0.00 0.00 0.00 0.00 0.00 0.00 0.00 0.00 0.00 0.00 0.00 0.00 0.00 0.00 0.00 0.00 0.00 0.00 0.00 0.00 0.00
0.00 0.00 0.01 0.00 0.00 0.03 0.74 0.42 0.31 0.19 0.16 0.12 0.09 0.08 0.06 0.03 0.05 0.01 0.01 0.00 0.00 0.00 0.00 0.00 0.00 0.00 0.00 0.00 0.00 0.00 0.00 0.00 0.00 0.00 0.00 0.00 0.00 0.00 0.00 0.00 0.00 0.00
0.00 0.00 0.00 0.01 0.02 0.00 0.27 1.16 1.28 0.79 0.35 0.20 0.14 0.09 0.07 0.04 0.01 0.01 0.01 0.00 0.00 0.01 0.00 0.00 0.00 0.00 0.00 0.00 0.00 0.00 0.00 0.00 0.00 0.00 0.00 0.00 0.00 0.00 0.00 0.00 0.00 0.00
0.00 0.00 0.00 0.00 0.00 0.00 0.13 0.50 0.66 1.32 0.66 0.37 0.15 0.06 0.03 0.01 0.01 0.00 0.00 0.00 0.01 0.00 0.00 0.00 0.00 0.00 0.00 0.00 0.00 0.00 0.00 0.00 0.00 0.00 0.00 0.00 0.00 0.00 0.00 0.00 0.00 0.00
0.00 0.00 0.00 0.00 0.00 0.05 0.17 0.49 0.79 0.83 0.83 0.53 0.34 0.12 0.01 0.00 0.00 0.00 0.00 0.00 0.00 0.00 0.00 0.00 0.00 0.00 0.00 0.00 0.00 0.00 0.00 0.00 0.00 0.00 0.00 0.00 0.00 0.00 0.00 0.00 0.00 0.00
0.00 0.00 0.00 0.00 0.00 0.02 0.30 0.57 0.73 0.56 0.54 0.38 0.09 0.02 0.00 0.00 0.00 0.00 0.00 0.00 0.00 0.00 0.00 0.00 0.00 0.00 0.00 0.00 0.00 0.00 0.00 0.00 0.00 0.00 0.00 0.00 0.00 0.00 0.00 0.00 0.00 0.00
0.00 0.00 0.00 0.00 0.02 0.14 0.31 0.73 0.42 0.15 0.08 0.04 0.01 0.00 0.00 0.00 0.00 0.00 0.00 0.00 0.00 0.00 0.00 0.00 0.00 0.00 0.00 0.00 0.00 0.00 0.00 0.00 0.00 0.00 0.00 0.00 0.00 0.00 0.00 0.00 0.00 0.00
0.00 0.00 0.00 0.00 0.02 0.03 0.04 0.32 0.33 0.06 0.01 0.00 0.00 0.00 0.00 0.00 0.00 0.00 0.00 0.00 0.00 0.00 0.00 0.00 0.00 0.00 0.00 0.00 0.00 0.00 0.00 0.00 0.00 0.00 0.00 0.00 0.00 0.00 0.00 0.00 0.00 0.00
0.00 0.00 0.00 0.00 0.16 0.11 0.02 0.03 0.02 0.02 0.00 0.00 0.00 0.00 0.00 0.00 0.00 0.00 0.00 0.00 0.00 0.00 0.00 0.00 0.00 0.00 0.00 0.00 0.00 0.00 0.00 0.02 0.00 0.00 0.01 0.00 0.00 0.00 0.00 0.00 0.00 0.00
0.00 0.00 0.00 0.00 0.05 0.25 0.44 0.02 0.00 0.00 0.00 0.00 0.00 0.00 0.00 0.00 0.00 0.00 0.00 0.00 0.00 0.00 0.00 0.00 0.00 0.00 0.00 0.00 0.00 0.00 0.00 0.00 0.00 0.01 0.01 0.00 0.00 0.01 0.00 0.00 0.00 0.00
0.00 0.00 0.00 0.00 0.02 0.03 0.34 0.04 0.00 0.00 0.00 0.00 0.00 0.00 0.00 0.00 0.00 0.00 0.00 0.00 0.00 0.00 0.00 0.00 0.00 0.00 0.00 0.00 0.00 0.01 0.01 0.01 0.01 0.02 0.02 0.00 0.05 0.00 0.00 0.00 0.00 0.00
MSLP
1013.52 1013.80 1014.20 1014.52 1014.64 1014.64 1014.96 1015.44 1015.64 1015.92 1016.16 1016.24 1016.48 1016.52 1016.64 1016.72 1016.84 1017.12 1017.32 1017.44 1017.64 1017.88 1018.04 1018.16 1018.28 1018.44 1018.48 1018.60 1018.72 1018.84 1019.00 1019.08 1019.08 1019.08 1019.20 1019.28 1019.40 1019.48 1019.60 1019.60 1019.60 1019.68
1013.16 1013.48 1013.72 1013.92 1014.16 1014.36 1014.68 1015.00 1015.44 1015.68 1015.92 1016.00 1016.04 1016.16 1016.36 1016.56 1016.80 1017.00 1017.24 1017.44 1017.60 1017.80 1017.88 1018.08 1018.20 1018.32 1018.44 1018.56 1018.68 1018.88 1019.00 1019.00 1019.16 1018.92 1019.20 1019.32 1019.32 1019.32 1019.44 1019.44 1019.44 1019.40
1012.84 1013.20 1013.48 1013.72 1014.00 1014.40 1014.68 1014.96 1015.20 1015.40 1015.60 1015.68 1015.76 1015.96 1016.24 1016.36 1016.64 1016.80 1017.00 1017.24 1017.48 1017.60 1017.80 1017.92 1018.08 1018.16 1018.28 1018.44 1018.56 1018.76 1018.84 1018.92 1019.08 1018.88 1019.04 1019.20 1019.12 1019.24 1019.20 1019.08 1019.12 1019.24
1012.60 1012.80 1013.08 1013.36 1013.72 1014.16 1014.44 1014.80 1015.04 1015.20 1015.28 1015.56 1015.68 1015.68 1015.88 1016.16 1016.36 1016.68 1016.88 1017.08 1017.28 1017.48 1017.60 1017.80 1017.92 1017.96 1018.08 1018.24 1018.44 1018.60 1018.68 1018.76 1018.72 1018.76 1018.96 1018.96 1018.96 1019.00 1019.00 1018.96 1018.96 1018.96
1012.24 1012.52 1012.76 1013.04 1013.36 1013.68 1014.04 1014.48 1014.80 1015.00 1015.12 1015.20 1015.40 1015.60 1015.88 1016.12 1016.28 1016.48 1016.76 1017.00 1017.16 1017.36 1017.52 1017.72 1017.80 1017.88 1017.96 1018.12 1018.32 1018.56 1018.64 1018.72 1018.64 1018.72 1018.84 1018.92 1018.76 1018.84 1018.80 1018.80 1018.92 1018.96
1011.88 1012.12 1012.40 1012.76 1013.08 1013.48 1013.84 1014.12 1014.28 1014.48 1014.72 1015.00 1015.24 1015.44 1015.76 1015.92 1016.16 1016.40 1016.68 1016.96 1017.04 1017.24 1017.40 1017.52 1017.68 1017.72 1017.80 1018.00 1018.20 1018.40 1018.48 1018.60 1018.48 1018.60 1018.76 1018.80 1018.64 1018.56 1018.64 1018.72 1018.80 1018.84
1011.64 1011.88 1012.20 1012.40 1012.80 1013.04 1013.44 1013.64 1013.84 1014.04 1014.24 1014.44 1014.84 1015.20 1015.36 1015.72 1016.00 1016.32 1016.68 1016.92 1017.00 1017.20 1017.36 1017.48 1017.60 1017.68 1017.68 1017.88 1018.08 1018.28 1018.32 1018.40 1018.40 1018.52 1018.68 1018.64 1018.60 1018.60 1018.52 1018.64 1018.68 1018.68
1011.16 1011.48 1011.84 1012.16 1012.52 1012.80 1013.08 1013.28 1013.60 1013.96 1014.12 1014.40 1014.80 1015.08 1015.28 1015.56 1015.76 1016.00 1016.40 1016.64 1016.88 1017.12 1017.28 1017.32 1017.40 1017.48 1017.48 1017.64 1017.92 1018.08 1018.16 1018.16 1018.28 1018.36 1018.48 1018.48 1018.48 1018.60 1018.44 1018.40 1018.40 1018.48
1010.84 1011.32 1011.60 1012.00 1012.28 1012.52 1012.80 1013.08 1013.32 1013.64 1013.92 1014.40 1014.72 1015.00 1015.20 1015.44 1015.64 1015.60 1016.00 1016.28 1016.60 1016.96 1017.24 1017.32 1017.32 1017.32 1017.32 1017.48 1017.68 1017.88 1017.96 1017.96 1017.92 1018.04 1018.16 1018.24 1018.32 1018.28 1018.16 1018.08 1018.20 1018.24
1010.68 1010.92 1011.32 1011.60 1011.96 1012.12 1012.40 1012.64 1012.96 1013.44 1013.96 1014.44 1014.76 1015.04 1015.44 1015.52 1015.40 1015.48 1015.88 1016.24 1016.40 1016.68 1017.12 1017.24 1017.24 1017.28 1017.32 1017.36 1017.48 1017.60 1017.68 1017.68 1017.68 1017.76 1017.84 1017.88 1017.92 1017.88 1017.80 1017.84 1017.88 1017.96
1010.32 1010.60 1010.92 1011.16 1011.40 1011.64 1011.96 1012.28 1012.60 1013.00 1013.48 1013.96 1014.44 1014.68 1014.88 1014.76 1014.84 1015.08 1015.80 1016.04 1016.00 1016.12 1016.56 1016.88 1016.96 1017.04 1017.16 1017.12 1017.12 1017.12 1017.20 1017.28 1017.40 1017.52 1017.60 1017.60 1017.56 1017.52 1017.52 1017.52 1017.56 1017.60
1009.84 1010.16 1010.40 1010.56 1010.84 1011.20 1011.48 1011.68 1012.04 1012.52 1013.00 1013.44 1013.68 1014.08 1014.40 1014.20 1014.28 1014.36 1015.00 1015.68 1015.68 1015.60 1015.88 1016.28 1016.44 1016.64 1016.72 1016.72 1016.68 1016.72 1016.88 1017.04 1017.12 1017.24 1017.24 1017.20 1017.16 1017.16 1017.16 1017.16 1017.28 1017.20
1009.32 1009.52 1009.64 1009.92 1010.32 1010.92 1011.32 1011.68 1011.96 1012.32 1012.72 1013.12 1013.44 1013.80 1014.08 1014.12 1014.16 1014.28 1014.56 1014.96 1015.32 1015.64 1015.64 1015.76 1016.00 1016.16 1016.24 1016.28 1016.36 1016.48 1016.64 1016.84 1016.92 1016.92 1016.96 1016.92 1016.88 1016.84 1016.80 1016.84 1016.84 1016.80
1008.72 1008.92 1009.36 1009.72 1010.28 1010.96 1011.32 1011.40 1011.64 1012.00 1012.40 1012.80 1013.32 1013.80 1013.92 1014.00 1014.32 1014.32 1014.32 1014.52 1014.84 1015.16 1015.32 1015.40 1015.60 1015.76 1015.84 1015.92 1016.04 1016.20 1016.40 1016.52 1016.60 1016.68 1016.68 1016.68 1016.68 1016.64 1016.60 1016.56 1016.48 1016.40
1008.52 1008.92 1009.32 1009.84 1010.28 1010.44 1010.48 1011.08 1011.76 1012.00 1012.16 1012.68 1013.44 1013.88 1013.80 1013.92 1014.12 1014.32 1014.44 1014.56 1014.76 1015.04 1015.28 1015.32 1015.40 1015.44 1015.44 1015.56 1015.84 1016.00 1016.04 1016.16 1016.20 1016.28 1016.36 1016.44 1016.44 1016.40 1016.32 1016.28 1016.16 1016.04
1008.24 1008.68 1009.24 1009.68 1010.16 1010.28 1010.44 1010.76 1011.68 1012.20 1012.28 1012.48 1012.68 1012.96 1013.40 1013.80 1013.96 1014.08 1014.28 1014.60 1014.88 1014.92 1015.00 1015.12 1015.08 1015.00 1015.08 1015.28 1015.44 1015.52 1015.56 1015.64 1015.76 1015.84 1015.96 1016.00 1016.12 1016.12 1016.00 1015.88 1015.76 1015.64
1008.00 1008.44 1008.88 1009.44 1009.72 1010.20 1010.68 1010.96 1010.84 1011.52 1012.28 1012.44 1012.56 1012.80 1013.16 1013.56 1013.80 1014.04 1014.20 1014.40 1014.52 1014.52 1014.56 1014.64 1014.64 1014.60 1014.76 1015.00 1015.12 1015.24 1015.28 1015.28 1015.44 1015.52 1015.52 1015.64 1015.72 1015.80 1015.76 1015.52 1015.28 1015.16
1007.68 1008.12 1008.68 1009.12 1009.52 1009.88 1010.28 1010.68 1011.12 1011.44 1011.56 1011.52 1012.24 1012.68 1013.00 1013.28 1013.68 1013.80 1013.80 1013.96 1014.08 1014.08 1014.08 1014.12 1014.20 1014.20 1014.48 1014.72 1014.88 1014.96 1015.08 1014.96 1014.92 1015.04 1015.12 1015.20 1015.28 1015.32 1015.28 1015.16 1015.08 1014.92
1007.48 1007.96 1008.48 1008.92 1009.28 1009.68 1010.12 1010.88 1011.28 1011.84 1012.20 1011.80 1012.08 1012.32 1012.76 1013.12 1013.36 1013.52 1013.64 1013.72 1013.80 1013.76 1013.76 1013.76 1013.76 1013.72 1014.08 1014.40 1014.56 1014.60 1014.72 1014.92 1014.76 1014.68 1014.80 1014.88 1014.92 1014.96 1014.92 1014.92 1014.88 1014.92
1007.48 1007.92 1008.40 1008.72 1009.12 1009.68 1010.20 1010.76 1011.40 1011.76 1012.24 1012.16 1012.28 1012.56 1012.88 1013.08 1013.12 1013.20 1013.28 1013.48 1013.48 1013.52 1013.52 1013.44 1013.40 1013.36 1013.68 1013.96 1014.12 1014.24 1014.60 1014.96 1014.64 1014.56 1014.60 1014.60 1014.60 1014.60 1014.64 1014.68 1014.72 1014.80
1007.48 1007.84 1008.28 1008.60 1009.04 1009.56 1010.12 1010.44 1010.92 1011.32 1011.60 1011.92 1012.28 1012.40 1012.52 1012.72 1012.76 1012.88 1012.96 1013.04 1013.04 1013.00 1013.04 1013.08 1012.96 1013.04 1013.32 1013.60 1013.88 1014.20 1014.48 1014.64 1014.40 1014.40 1014.36 1014.36 1014.32 1014.36 1014.40 1014.48 1014.60 1014.68
1007.32 1007.68 1008.12 1008.44 1008.88 1009.40 1009.96 1010.44 1010.76 1010.92 1011.28 1011.52 1011.76 1011.96 1012.00 1012.12 1012.28 1012.36 1012.60 1012.76 1012.64 1012.52 1012.60 1012.72 1012.52 1012.72 1013.04 1013.40 1013.80 1014.00 1014.16 1014.16 1014.08 1014.20 1014.12 1014.08 1014.12 1014.16 1014.28 1014.44 1014.56 1014.64
1007.08 1007.52 1007.96 1008.28 1008.68 1009.20 1009.68 1010.12 1010.36 1010.64 1010.76 1011.00 1011.48 1011.60 1011.76 1011.88 1011.92 1011.96 1012.08 1012.20 1012.20 1012.24 1012.44 1012.48 1012.44 1012.48 1012.80 1013.16 1013.48 1013.64 1013.80 1013.72 1013.80 1013.80 1013.88 1014.00 1014.08 1014.12 1014.28 1014.40 1014.44 1014.44
1006.88 1007.28 1007.76 1008.16 1008.48 1008.80 1009.24 1009.72 1010.12 1010.32 1010.48 1010.68 1011.08 1011.32 1011.44 1011.40 1011.40 1011.56 1011.56 1011.60 1011.76 1011.92 1012.00 1012.24 1012.16 1012.16 1012.56 1012.92 1013.16 1013.40 1013.40 1013.36 1013.48 1013.64 1013.80 1013.96 1014.04 1014.08 1014.20 1014.28 1014.32 1014.48
1006.72 1007.12 1007.52 1007.88 1008.16 1008.48 1008.84 1009.40 1009.76 1009.92 1010.08 1010.24 1010.60 1010.88 1010.96 1010.96 1011.04 1011.20 1011.28 1011.32 1011.36 1011.52 1011.72 1011.96 1011.84 1012.04 1012.48 1012.72 1012.92 1013.16 1013.24 1013.12 1013.24 1013.60 1013.92 1013.80 1013.92 1014.04 1014.00 1014.00 1014.08 1014.24
1006.56 1006.96 1007.32 1007.64 1008.04 1008.40 1008.80 1009.16 1009.40 1009.68 1009.88 1010.12 1010.32 1010.44 1010.64 1010.68 1010.76 1010.88 1011.12 1011.16 1011.12 1011.36 1011.48 1011.64 1011.92 1012.08 1012.40 1012.56 1012.72 1012.96 1013.00 1012.92 1013.20 1013.88 1014.08 1014.00 1014.16 1014.28 1013.96 1013.84 1013.92 1013.92
Thickness
5791 5788 5784 5781 5780 5780 5777 5773 5769 5766 5763 5761 5759 5757 5756 5754 5752 5749 5747 5744 5742 5739 5736 5734 5732 5730 5728 5726 5724 5722 5720 5718 5717 5716 5715 5713 5710 5709 5707 5706 5705 5703
5792 5789 5786 5784 5782 5780 5777 5773 5768 5765 5763 5761 5759 5758 5755 5752 5749 5747 5745 5742 5740 5737 5734 5732 5730 5728 5726 5724 5722 5720 5718 5716 5715 5714 5712 5710 5708 5706 5704 5703 5703 5701
5793 5790 5787 5784 5782 5778 5774 5771 5767 5765 5763 5761 5760 5758 5755 5752 5749 5746 5744 5741 5738 5735 5733 5730 5728 5726 5723 5722 5720 5717 5716 5714 5712 5712 5710 5708 5706 5704 5703 5702 5701 5700
5793 5791 5788 5785 5781 5777 5772 5768 5764 5763 5762 5760 5759 5757 5754 5751 5747 5745 5742 5739 5737 5733 5731 5728 5726 5724 5722 5720 5717 5715 5713 5712 5710 5710 5707 5706 5705 5702 5701 5700 5699 5698
5794 5791 5789 5785 5780 5776 5773 5768 5764 5762 5760 5758 5756 5753 5750 5748 5745 5741 5738 5736 5733 5730 5728 5725 5723 5722 5720 5717 5715 5712 5710 5709 5708 5707 5704 5702 5702 5700 5699 5697 5696 5695
5795 5791 5788 5784 5780 5777 5773 5769 5765 5762 5760 5757 5754 5751 5748 5745 5741 5738 5734 5731 5729 5726 5723 5722 5720 5719 5717 5715 5711 5709 5706 5705 5704 5702 5700 5698 5698 5697 5696 5693 5692 5691
5795 5792 5789 5784 5780 5776 5772 5770 5766 5762 5759 5756 5753 5749 5745 5743 5739 5735 5730 5727 5724 5721 5719 5717 5716 5715 5713 5711 5708 5706 5703 5702 5700 5698 5696 5694 5694 5692 5692 5690 5688 5687
5796 5792 5788 5783 5779 5775 5771 5768 5764 5759 5757 5753 5748 5745 5742 5739 5736 5732 5728 5724 5721 5717 5714 5713 5713 5712 5710 5708 5705 5703 5701 5699 5698 5695 5693 5692 5691 5689 5689 5688 5686 5685
5795 5792 5787 5782 5778 5774 5770 5767 5763 5759 5755 5749 5745 5741 5738 5734 5732 5730 5726 5722 5718 5712 5710 5710 5709 5708 5707 5705 5703 5700 5698 5697 5696 5694 5692 5691 5689 5688 5688 5687 5685 5684
5795 5791 5787 5782 5778 5774 5769 5765 5762 5758 5752 5747 5742 5738 5735 5732 5731 5728 5723 5719 5716 5710 5707 5707 5707 5705 5704 5702 5700 5698 5697 5696 5695 5693 5691 5690 5689 5689 5688 5686 5684 5683
5795 5791 5787 5783 5779 5774 5769 5765 5761 5758 5753 5748 5743 5739 5736 5734 5732 5728 5721 5716 5715 5712 5707 5705 5705 5703 5701 5699 5699 5698 5696 5695 5694 5692 5691 5690 5688 5688 5686 5685 5684 5682
5794 5791 5787 5784 5780 5774 5769 5765 5761 5758 5753 5748 5745 5740 5736 5735 5734 5729 5722 5715 5713 5712 5709 5706 5703 5702 5700 5698 5698 5697 5696 5694 5692 5691 5689 5688 5687 5686 5685 5683 5682 5681
5795 5792 5788 5785 5779 5772 5767 5762 5758 5756 5751 5747 5743 5738 5734 5733 5731 5728 5723 5717 5713 5710 5708 5705 5703 5701 5700 5699 5697 5696 5694 5691 5690 5688 5687 5686 5685 5684 5683 5681 5681 5679
5796 5791 5786 5781 5774 5768 5765 5760 5755 5752 5749 5743 5737 5732 5729 5728 5727 5724 5721 5718 5713 5709 5707 5704 5702 5699 5699 5698 5695 5693 5691 5689 5687 5686 5684 5684 5682 5681 5680 5679 5679 5678
5795 5789 5783 5776 5769 5765 5764 5758 5750 5746 5745 5739 5732 5728 5725 5723 5723 5721 5718 5714 5710 5707 5705 5702 5701 5699 5697 5695 5693 5691 5689 5687 5686 5685 5683 5682 5680 5679 5678 5677 5676 5676
5794 5787 5781 5773 5767 5763 5758 5752 5747 5743 5739 5735 5731 5728 5724 5720 5720 5718 5714 5709 5706 5705 5703 5702 5700 5698 5696 5694 5692 5689 5689 5688 5686 5685 5682 5680 5679 5677 5676 5676 5675 5675
5793 5787 5780 5772 5766 5761 5754 5748 5744 5741 5738 5734 5729 5725 5723 5719 5716 5714 5710 5706 5704 5703 5704 5702 5700 5698 5695 5693 5691 5688 5688 5688 5685 5684 5682 5680 5678 5677 5675 5675 5674 5674
5792 5785 5779 5772 5765 5760 5752 5745 5738 5734 5734 5733 5726 5721 5720 5716 5712 5710 5708 5705 5703 5703 5703 5702 5700 5698 5694 5691 5690 5688 5687 5686 5685 5683 5681 5679 5677 5676 5674 5673 5673 5672
5789 5783 5777 5770 5764 5758 5750 5743 5734 5726 5725 5726 5722 5717 5716 5713 5710 5709 5706 5703 5702 5702 5702 5701 5699 5697 5694 5691 5689 5688 5685 5683 5682 5681 5679 5678 5676 5674 5673 5671 5670 5668
5784 5779 5773 5768 5762 5755 5747 5740 5733 5725 5722 5721 5718 5714 5712 5711 5708 5706 5704 5702 5701 5700 5700 5699 5699 5697 5694 5691 5689 5686 5682 5679 5678 5678 5676 5675 5673 5671 5669 5668 5666 5663
5780 5775 5769 5765 5758 5752 5744 5737 5732 5727 5723 5720 5717 5714 5711 5709 5707 5705 5703 5700 5699 5699 5698 5698 5698 5696 5693 5689 5685 5681 5677 5675 5675 5675 5673 5672 5671 5668 5666 5663 5660 5657
5776 5771 5765 5760 5755 5748 5741 5735 5730 5727 5725 5721 5716 5713 5711 5708 5706 5703 5702 5699 5698 5699 5697 5696 5696 5694 5690 5685 5681 5677 5674 5674 5673 5672 5670 5669 5667 5664 5661 5658 5655 5653
5773 5766 5760 5755 5751 5745 5739 5733 5728 5725 5724 5720 5715 5711 5708 5706 5705 5703 5702 5699 5698 5697 5695 5692 5691 5690 5686 5682 5678 5674 5673 5673 5672 5670 5667 5664 5661 5659 5657 5654 5651 5649
5768 5762 5756 5751 5746 5742 5737 5731 5726 5723 5721 5717 5713 5709 5707 5705 5705 5703 5701 5699 5697 5695 5692 5689 5688 5687 5683 5679 5676 5673 5672 5671 5669 5666 5662 5659 5657 5654 5652 5650 5647 5645
5763 5758 5752 5748 5743 5739 5735 5729 5724 5721 5719 5715 5711 5707 5705 5704 5702 5700 5697 5696 5695 5693 5689 5687 5685 5683 5679 5676 5674 5671 5670 5669 5666 5661 5657 5654 5652 5649 5647 5646 5642 5639
5759 5754 5749 5745 5740 5735 5730 5726 5723 5720 5716 5713 5710 5706 5703 5701 5699 5697 5695 5694 5693 5690 5688 5685 5681 5677 5675 5674 5672 5668 5667 5665 5660 5653 5650 5649 5646 5643 5642 5641 5638 5635